Location: Newark
(42.9277°N, 71.8621°W)
Time: 05:53:07
(UTC+00:00)

Transit 2A - All Passes

Search period start: 06 June 2020 00:00
Search period end: 16 June 2020 00:00
Orbit: 593 x 966 km, 66.7° (Epoch: 05 June)

Date Brightness Start Highest point End Pass type
(mag) Time Alt. Az. Time Alt. Az. Time Alt. Az.
06 Jun - 00:36:53 10° NNW 00:42:45 41° NE 00:48:44 10° ESE daylight
06 Jun - 02:20:11 10° NW 02:26:03 42° WSW 02:31:57 10° S visible
06 Jun - 15:19:13 10° SSE 15:22:55 21° ESE 15:26:54 10° ENE daylight
06 Jun - 17:00:40 10° SW 17:05:35 54° NW 17:11:06 10° NNE daylight
06 Jun - 18:47:45 10° WNW 18:50:16 13° NNW 18:52:53 10° N daylight
07 Jun - 00:02:54 10° NNW 00:08:24 32° NE 00:14:01 10° ESE daylight
07 Jun - 01:45:51 10° NW 01:52:01 58° WSW 01:58:14 10° SSE visible
07 Jun - 14:46:29 10° SE 14:49:04 14° ESE 14:51:47 10° ENE daylight
07 Jun - 16:26:23 10° SW 16:31:22 77° WNW 16:36:59 10° NNE daylight
07 Jun - 18:12:19 10° WNW 18:15:41 17° NW 18:19:15 10° N daylight
07 Jun - 23:28:58 10° NNW 23:33:59 25° NE 23:39:06 10° E daylight
08 Jun - 01:11:37 10° NNW 01:17:55 79° WSW 01:24:17 10° SSE visible
08 Jun - 02:57:19 10° WNW 03:00:15 14° WSW 03:03:12 10° SW visible
08 Jun - 15:52:17 10° SSW 15:57:14 75° ESE 16:02:48 10° NE daylight
08 Jun - 17:37:11 10° W 17:41:10 21° NW 17:45:27 10° N daylight
08 Jun - 22:55:07 10° N 22:59:30 20° NE 23:03:59 10° E daylight
09 Jun - 00:37:26 10° NNW 00:43:45 78° ENE 00:50:08 10° SE daylight
09 Jun - 02:22:00 10° WNW 02:26:23 20° WSW 02:30:47 10° SSW visible
09 Jun - 15:18:22 10° S 15:23:09 51° ESE 15:28:32 10° NE daylight
09 Jun - 17:02:17 10° WSW 17:06:43 28° NW 17:11:34 10° NNE daylight
09 Jun - 22:21:20 10° N 22:24:57 16° NNE 22:28:38 10° ENE daylight
10 Jun - 00:03:20 10° NNW 00:09:33 58° NE 00:15:49 10° SE daylight
10 Jun - 01:47:14 10° NW 01:52:29 28° WSW 01:57:44 10° SSW visible
10 Jun - 14:44:43 10° S 14:49:11 34° ESE 14:54:07 10° NE daylight
10 Jun - 16:27:35 10° WSW 16:32:20 37° NW 16:37:36 10° NNE daylight
10 Jun - 18:16:42 10° NNW 18:17:26 10° NNW 18:18:11 10° NNW daylight
10 Jun - 21:47:45 10° N 21:50:21 13° NNE 21:52:58 10° NE daylight
10 Jun - 23:29:17 10° NNW 23:35:15 44° NE 23:41:19 10° ESE daylight
11 Jun - 01:12:42 10° NW 01:18:30 39° WSW 01:24:18 10° S visible
11 Jun - 14:11:21 10° SSE 14:15:16 23° ESE 14:19:31 10° NE daylight
11 Jun - 15:53:04 10° SW 15:58:01 51° NW 16:03:34 10° NNE daylight
11 Jun - 17:40:22 10° NW 17:42:47 13° NNW 17:45:17 10° N daylight
11 Jun - 21:14:53 10° NNE 21:15:40 10° NNE 21:16:28 10° NNE daylight
11 Jun - 22:55:18 10° NNW 23:00:55 33° NE 23:06:37 10° ESE daylight
12 Jun - 00:38:20 10° NW 00:44:29 54° WSW 00:50:37 10° S daylight
12 Jun - 13:38:26 10° SE 13:41:25 16° ESE 13:44:33 10° ENE daylight
12 Jun - 15:18:45 10° SW 15:23:47 72° WNW 15:29:28 10° NNE daylight
12 Jun - 17:04:53 10° WNW 17:08:12 16° NW 17:11:41 10° N daylight
12 Jun - 22:21:21 10° NNW 22:26:31 26° NE 22:31:45 10° E daylight
13 Jun - 00:04:04 10° NW 00:10:23 74° WSW 00:16:43 10° SSE daylight
13 Jun - 01:50:11 10° WNW 01:52:39 12° W 01:55:07 10° WSW visible
13 Jun - 14:44:36 10° SSW 14:49:38 81° ESE 14:55:18 10° NNE daylight
13 Jun - 16:29:43 10° W 16:33:40 20° NW 16:37:54 10° N daylight
13 Jun - 21:47:28 10° N 21:52:02 21° NE 21:56:41 10° E daylight
13 Jun - 23:29:53 10° NNW 23:36:15 82° ENE 23:42:36 10° SSE daylight
14 Jun - 01:14:38 10° WNW 01:18:48 18° WSW 01:22:57 10° SW visible
14 Jun - 14:10:40 10° SSW 14:15:33 56° ESE 14:21:03 10° NE daylight
14 Jun - 15:54:47 10° W 15:59:12 26° NW 16:04:01 10° NNE daylight
14 Jun - 21:13:40 10° N 21:17:30 16° NE 21:21:24 10° ENE daylight
14 Jun - 22:55:46 10° NNW 23:02:02 62° NE 23:08:19 10° SE daylight
15 Jun - 00:39:47 10° NW 00:44:54 26° WSW 00:49:59 10° SSW daylight
15 Jun - 13:36:56 10° S 13:41:33 38° ESE 13:46:40 10° NE daylight
15 Jun - 15:20:02 10° WSW 15:24:48 35° NW 15:30:04 10° NNE daylight
15 Jun - 17:09:56 10° NNW 17:09:58 10° NNW 17:10:02 10° NNW daylight
15 Jun - 20:40:01 10° N 20:42:54 13° NNE 20:45:50 10° ENE daylight
15 Jun - 22:21:43 10° NNW 22:27:46 46° NE 22:33:51 10° SE daylight
